FENGYUN 1C DEB

Satellite information

Favourite Embed

Satellite Type and Status

DEBRISIN ORBIT

Key statistics

Satellite FENGYUN 1C DEB at a glance.

Uptime

9617

Days in orbit

Revolutions

≈ 14.2

Per day

Orbit

SSO

Sun Synchronous Orbit

Inclination

98.2

Latest

Satellite identification and parameters

Extended collection of information and parameters for FENGYUN 1C DEB.

Object identification

Identified? True

Debris? True

Object name: FENGYUN 1C DEB

International designator: 1999-025EZG

Object number (NORAD): 46451

Object ID (CCSDS): 46451

Country: PEOPLES REPUBLIC OF CHINA (PRC)

Current information (Y/N): Y

RCS size: SMALL

Orbital parameters

Period: 101.516 minutes

Inclination: 98.1655 deg

SMA: 7208.583 km

Apoapsis: 958.058 km

Periapsis: 702.838 km

RAAN: 275.2277 deg

Eccentricy: 0.01770254

Argument of periapsis: 113.8876 deg

Mean anomaly: 263.6132 deg

Mean motion: 14.18495357 rev/day

Mean motion (dot): 0.00008743 rev/day2

B* drag term: 0.0036326441 1/REarth

Two-line elements (TLE)

Creation date: Sept. 5, 2025, 7:38 p.m.

Reference frame: TEME

Reference center: EARTH

Epoch: Sept. 5, 2025, 8:26 a.m. UTC

TLE line 0: 0 FENGYUN 1C DEB

TLE line 1: 1 46451U 99025EZG 25248.35147416 .00008743 00000-0 36326-2 0 9991

TLE line 2: 2 46451 98.1655 275.2277 0177025 113.8876 263.6132 14.18495357556112

Live tracking on map

Real-time ground track for satellite FENGYUN 1C DEB.

In-orbit conjunctions

A list of the most updated potential collisions computed for object FENGYUN 1C DEB.

Target Orbit TCA Probability of collision Miss distance Type
COSMOS 858 LEO 2025-07-25 10:14:58 0.0002227824 802.0 (m) PAYLOAD
SL-8 R/B LEO 2024-11-25 19:34:24 0.0001675035 190.0 (m) ROCKET BODY
FENGYUN 1C DEB SSO 2024-11-14 23:39:45 0.0002801681 234.0 (m) DEBRIS

Associated space launch

Chinese polar orbiting meteorological satellite

FENGYUN 1C DEB was lifted into orbit during the mission ‘Long March 4B | Feng Yun 1C’, on board a Long March 4B space rocket.

The launch took place on May 10, 1999, 1:33 a.m. from Launch Complex 7.

For more information about the launch, click the button.

Launch to space Long March 4B | Feng Yun 1C
Long March 4B | Feng Yun 1C

Agency: N/A

Status: Launch Successful

Launch date: May 10, 1999, 1:33 a.m. UTC

Rocket: Long March 4B

Launch pad: Launch Complex 7

Location: Taiyuan Satellite Launch Center, People's Republic of China

...

Latest news about this satellite

There are no fresh news available about this satellite. Check back as we update our databases every day.


Newsletter sign-up

Weekly statistics, charts and insights to help you stay on top of the space industry.